OK1LPD-5 Weather Reports


time (UTC)temp
C
wind
direction
speed
KPH
gust
KPH
rain 1hr
cm
rain 24hr
cm
rain mn
cm
humidity
%
barometer
mb
20260507070013 12 225 3.2 9.7 0.00 0.43 0.00 99 1008.1
20260507065011 11 220 3.2 9.7 0.00 0.43 0.00 99 1008.0
20260507064009 11 182 3.2 6.4 0.00 0.43 0.00 99 1008.1
20260507063011 11 146 0.0 3.2 0.00 0.43 0.00 99 1008.1
20260507062009 10 181 0.0 6.4 0.00 0.43 0.00 99 1008.1
20260507061010 10 354 0.0 3.2 0.00 0.43 0.00 99 1008.1
20260507060013 10 164 1.6 3.2 0.00 0.43 0.00 99 1007.9
20260507055012 10 198 1.6 4.8 0.00 0.43 0.00 99 1007.8
20260507054008 10 159 1.6 3.2 0.00 0.43 0.00 99 1007.6
20260507053012 10 244 0.0 3.2 0.00 0.43 0.00 99 1007.4
20260507052011 10 301 0.0 3.2 0.00 0.43 0.00 99 1007.2
20260507051009 9 0 0.0 0.0 0.00 0.43 0.00 99 1007.1
20260507050012 8 0 0.0 0.0 0.00 0.43 0.00 99 1007.1
20260507045012 8 0 0.0 0.0 0.00 0.43 0.00 99 1006.9
20260507044009 8 0 0.0 0.0 0.00 0.43 0.00 99 1006.8
20260507043012 8 270 0.0 1.6 0.00 0.43 0.00 99 1006.5
20260507042009 8 270 0.0 1.6 0.00 0.43 0.00 99 1006.5
20260507041008 8 270 0.0 1.6 0.00 0.43 0.00 99 1006.4
20260507040012 8 0 0.0 0.0 0.00 0.43 0.00 99 1006.2
20260507035011 8 270 0.0 1.6 0.00 0.43 0.00 99 1006.3
20260507034009 8 270 0.0 1.6 0.00 0.43 0.00 99 1006.1
20260507033011 8 270 0.0 1.6 0.00 0.43 0.00 99 1006.1
20260507032011 7 270 0.0 1.6 0.00 0.43 0.00 99 1005.8
20260507031008 7 0 0.0 0.0 0.00 0.43 0.00 99 1005.7
20260507030013 8 0 0.0 0.0 0.00 0.43 0.00 99 1005.5
20260507025009 8 270 0.0 1.6 0.00 0.43 0.00 99 1005.5
20260507024008 8 270 0.0 1.6 0.00 0.43 0.00 99 1005.4
20260507023011 8 0 0.0 0.0 0.00 0.43 0.00 99 1005.5
20260507022009 8 270 0.0 1.6 0.00 0.43 0.00 99 1005.4
20260507021009 8 270 0.0 1.6 0.00 0.43 0.00 99 1005.3
20260507020011 8 270 0.0 1.6 0.00 0.43 0.00 99 1005.2
20260507015010 8 0 0.0 0.0 0.00 0.43 0.00 99 1005.1
20260507014008 8 0 0.0 0.0 0.00 0.43 0.00 99 1004.9
20260507013011 9 270 0.0 1.6 0.00 0.43 0.00 99 1004.9
20260507012008 9 0 0.0 0.0 0.00 0.43 0.00 99 1004.8
20260507011008 9 0 0.0 0.0 0.00 0.43 0.00 99 1004.7
20260507010011 10 270 0.0 1.6 0.00 0.43 0.00 99 1004.6
20260507005008 10 270 0.0 1.6 0.00 0.43 0.00 99 1004.4
20260507004008 10 270 0.0 1.6 0.00 0.43 0.00 99 1004.1
20260507003011 10 1 0.0 1.6 0.00 0.43 0.00 99 1004.1
20260507002008 10 0 0.0 0.0 0.00 0.43 0.00 99 1004.2
20260507001008 10 179 0.0 3.2 0.00 0.43 0.00 99 1004.2
20260507000011 10 228 0.0 6.4 0.00 0.43 0.00 99 1004.2
20260506235009 10 326 0.0 1.6 0.00 0.43 0.00 99 1004.0
20260506234007 10 285 0.0 1.6 0.00 0.43 0.00 99 1004.0
20260506233008 10 264 0.0 1.6 0.00 0.43 0.00 99 1003.5
20260506232008 11 260 0.0 1.6 0.00 0.43 0.00 99 1003.4
20260506231007 11 270 0.0 1.6 0.00 0.43 0.00 99 1003.4
20260506230008 11 0 0.0 0.0 0.00 0.43 0.00 99 1003.3
20260506225008 11 172 0.0 3.2 0.00 0.43 0.00 99 1003.1
20260506224008 11 0 0.0 0.0 0.00 0.43 0.00 99 1003.1
20260506223010 11 314 0.0 3.2 0.00 0.43 0.00 99 1002.9
20260506222007 11 0 0.0 0.0 0.00 0.43 0.00 99 1002.8
20260506221008 12 314 0.0 3.2 0.00 0.43 0.00 99 1002.8
20260506220010 12 325 0.0 3.2 0.00 0.43 0.00 99 1002.6
20260506215008 12 263 0.0 3.2 0.00 0.43 0.43 99 1002.6
20260506214009 12 286 1.6 3.2 0.00 0.43 0.43 99 1002.5
20260506213007 12 270 0.0 3.2 0.00 0.43 0.43 99 1002.1
20260506212008 12 269 1.6 3.2 0.00 0.43 0.43 99 1001.9
20260506211008 12 267 0.0 4.8 0.00 0.43 0.43 99 1001.2
20260506210008 12 282 1.6 9.7 0.00 0.43 0.43 99 1001.3
20260506205008 12 317 0.0 4.8 0.43 0.43 0.43 99 1001.0
20260506204008 12 335 0.0 4.8 0.43 0.43 0.43 99 1001.4
20260506203007 12 289 0.0 4.8 0.43 0.43 0.43 99 1001.6
20260506202008 12 221 0.0 3.2 0.43 0.43 0.43 99 1001.4
20260506195012 22 222 0.0 4.8 0.00 0.00 0.00 75 1003.4
20260506194015 22 222 0.0 4.8 0.00 0.00 0.00 75 1003.4
20260506193014 22 222 0.0 4.8 0.00 0.00 0.00 75 1003.4
20260506192012 22 222 0.0 4.8 0.00 0.00 0.00 75 1003.4
20260506191016 22 222 0.0 4.8 0.00 0.00 0.00 75 1003.4
20260506190015 22 222 0.0 4.8 0.00 0.00 0.00 75 1003.4
20260506185013 22 222 0.0 4.8 0.00 0.00 0.00 75 1003.4
20260506184015 22 222 0.0 4.8 0.00 0.00 0.00 75 1003.4
20260506183013 22 222 0.0 4.8 0.00 0.00 0.00 75 1003.4
20260506182013 22 222 0.0 4.8 0.00 0.00 0.00 75 1003.4
20260506181015 22 222 0.0 4.8 0.00 0.00 0.00 75 1003.4
20260506180015 22 222 0.0 4.8 0.00 0.00 0.00 75 1003.4
20260506175015 22 222 0.0 4.8 0.00 0.00 0.00 75 1003.4
20260506174016 22 222 0.0 4.8 0.00 0.00 0.00 75 1003.4
20260506173014 22 222 0.0 4.8 0.00 0.00 0.00 75 1003.4
20260506172014 22 222 0.0 4.8 0.00 0.00 0.00 75 1003.4
20260506171011 22 222 0.0 4.8 0.00 0.00 0.00 75 1003.4
20260506170014 22 222 0.0 4.8 0.00 0.00 0.00 75 1003.4
20260506165013 22 222 0.0 4.8 0.00 0.00 0.00 75 1003.4
20260506164014 22 222 0.0 4.8 0.00 0.00 0.00 75 1003.4
20260506163013 22 222 0.0 4.8 0.00 0.00 0.00 75 1003.4
20260506162015 22 222 0.0 4.8 0.00 0.00 0.00 75 1003.4
20260506161013 22 222 0.0 4.8 0.00 0.00 0.00 75 1003.4
20260506160013 22 222 0.0 4.8 0.00 0.00 0.00 75 1003.4
20260506155013 22 222 0.0 4.8 0.00 0.00 0.00 75 1003.4
20260506154013 22 222 0.0 4.8 0.00 0.00 0.00 75 1003.4
20260506153014 22 222 0.0 4.8 0.00 0.00 0.00 75 1003.4
20260506152012 22 222 0.0 4.8 0.00 0.00 0.00 75 1003.4
20260506151007 22 222 0.0 4.8 0.00 0.00 0.00 75 1003.4
20260506150013 22 222 0.0 4.8 0.00 0.00 0.00 75 1003.4
20260506145014 22 222 0.0 4.8 0.00 0.00 0.00 75 1003.4
20260506144014 22 222 0.0 4.8 0.00 0.00 0.00 75 1003.4
20260506143012 22 222 0.0 4.8 0.00 0.00 0.00 75 1003.4
20260506142015 22 222 0.0 4.8 0.00 0.00 0.00 75 1003.4
20260506141012 22 222 0.0 4.8 0.00 0.00 0.00 75 1003.4
20260506140012 22 222 0.0 4.8 0.00 0.00 0.00 75 1003.4
20260506135015 22 222 0.0 4.8 0.00 0.00 0.00 75 1003.4
20260506134013 22 222 0.0 4.8 0.00 0.00 0.00 75 1003.4
20260506133012 22 222 0.0 4.8 0.00 0.00 0.00 75 1003.4
20260506132015 22 222 0.0 4.8 0.00 0.00 0.00 75 1003.4
20260506131014 22 222 0.0 4.8 0.00 0.00 0.00 75 1003.4
20260506130012 22 222 0.0 4.8 0.00 0.00 0.00 75 1003.4
20260506125015 22 222 0.0 4.8 0.00 0.00 0.00 75 1003.4
20260506124013 22 222 0.0 4.8 0.00 0.00 0.00 75 1003.4
20260506123013 22 222 0.0 4.8 0.00 0.00 0.00 75 1003.4
20260506122016 22 222 0.0 4.8 0.00 0.00 0.00 75 1003.4
20260506121016 22 222 0.0 4.8 0.00 0.00 0.00 75 1003.4
20260506120013 22 222 0.0 4.8 0.00 0.00 0.00 75 1003.4
20260506115015 22 222 0.0 4.8 0.00 0.00 0.00 75 1003.4
20260506114010 22 222 0.0 4.8 0.00 0.00 0.00 75 1003.4
20260506113013 22 222 0.0 4.8 0.00 0.00 0.00 75 1003.4
20260506112015 22 222 0.0 4.8 0.00 0.00 0.00 75 1003.4
20260506111013 22 222 0.0 4.8 0.00 0.00 0.00 75 1003.4
20260506110013 22 222 0.0 4.8 0.00 0.00 0.00 75 1003.4
20260506105016 22 222 0.0 4.8 0.00 0.00 0.00 75 1003.4
20260506104016 22 222 0.0 4.8 0.00 0.00 0.00 75 1003.4
20260506103015 22 222 0.0 4.8 0.00 0.00 0.00 75 1003.4
20260506102016 22 222 0.0 4.8 0.00 0.00 0.00 75 1003.4
20260506101015 22 222 0.0 4.8 0.00 0.00 0.00 75 1003.4
20260506100014 22 222 0.0 4.8 0.00 0.00 0.00 75 1003.4
20260506095016 22 222 0.0 4.8 0.00 0.00 0.00 75 1003.4
20260506094009 22 222 0.0 4.8 0.00 0.00 0.00 75 1003.4
20260506093014 22 222 0.0 4.8 0.00 0.00 0.00 75 1003.4
20260506092015 22 222 0.0 4.8 0.00 0.00 0.00 75 1003.4
20260506091013 22 222 0.0 4.8 0.00 0.00 0.00 75 1003.4
20260506085015 22 222 0.0 4.8 0.00 0.00 0.00 75 1003.4
20260506084012 22 222 0.0 4.8 0.00 0.00 0.00 75 1003.4
20260506083009 22 222 0.0 4.8 0.00 0.00 0.00 75 1003.4
20260506082015 22 222 0.0 4.8 0.00 0.00 0.00 75 1003.4
20260506081016 22 222 0.0 4.8 0.00 0.00 0.00 75 1003.4
20260506073014 22 222 0.0 4.8 0.00 0.03 0.00 75 1003.4
20260506072016 22 222 0.0 4.8 0.00 0.03 0.00 75 1003.4
20260506071016 22 222 0.0 4.8 0.00 0.03 0.00 75 1003.4